User: anonymous   Login
Location: Champs
(48.8539°N, 2.6040°E)
Time: 23:32:56
(UTC+00:00)
Language:

CZ-4C R/B - Orbit

View from above orbital plane
View from above orbital plane
View from above satellite
View from above satellite

Ground track
Ground track

The orbit data is extracted from the following two-line orbital elements,

1 36416U 10009D   22020.48471671  .00000022  00000-0  53622-4 0  9990
2 36416  63.4169  75.1450 0552227 355.9949   3.6756 13.69623776594038
Epoch (UTC): 20 January 2022 11:37:59
Eccentricity: 0.0552227
inclination: 63.4169°
perigee height: 593 km
apogee height: 1408 km
right ascension of ascending node: 75.1450°
argument of perigee: 355.9949°
revolutions per day: 13.69623776
mean anomaly at epoch: 3.6756°
orbit number at epoch: 59403

The dashed part of the orbit path shows where the satellite is in the earth's shadow,  

DLR